User: anonymous   Login
Location: Mentone
(34.5413°N, 85.5351°W)
Time: 00:08:09
(UTC-06:00)
Language:

Tiros 1 despin weight - Orbit

View from above orbital plane
View from above orbital plane
View from above satellite
View from above satellite

Ground track
Ground track

The orbit data is extracted from the following two-line orbital elements,

1 00115U 60002D   16338.13430410  .00000203  00000-0  51823-4 0  9990
2 00115  48.1680   5.8424 0035398 314.6315  45.1712 14.82958448 21129
Epoch (UTC): 03 December 2016 03:13:23
Eccentricity: 0.0035398
inclination: 48.1680°
perigee height: 595 km
apogee height: 645 km
right ascension of ascending node: 5.8424°
argument of perigee: 314.6315°
revolutions per day: 14.82958448
mean anomaly at epoch: 45.1712°
orbit number at epoch: 2112

The dashed part of the orbit path shows where the satellite is in the earth's shadow,  

DLR